Вернуться в каталог

SL-16 DEB

АктивенLEO
NORAD 39862·DEBRIS·🇷🇺 Russia

Запущен Dec 25, 1992 с Baikonur Cosmodrome

Loading…

Ближайшие Пролёты (ближайшие 24 часа)

TLE

УстаревшееSource: Space-Track

Эпоха: Sep 5, 2026, 11:47 UTC

1 39862U 92093LQ  26248.49127979  .00002043  00000-0  33458-3 0  9996
2 39862  70.8284 187.8198 0066484 298.1592  61.2852 14.70701793640367

Отслеживайте SL-16 DEB в реальном времени с AllMySat

Download on the App Store